EDT,Max TemperatureF,Mean TemperatureF,Min TemperatureF,Max Dew PointF,MeanDew PointF,Min DewpointF,Max Humidity, Mean Humidity, Min Humidity, Max Sea Level PressureIn, Mean Sea Level PressureIn, Min Sea Level PressureIn, Max VisibilityMiles, Mean VisibilityMiles, Min VisibilityMiles, Max Wind SpeedMPH, Mean Wind SpeedMPH, Max Gust SpeedMPH,PrecipitationIn, CloudCover, Events, WindDirDegrees
2013-9-1,87,78,69,73,70,68,100,81,55,29.86,29.82,29.77,10,8,2,8,3,,0.18,3,,181
2013-9-2,80,74,69,73,70,68,100,89,70,29.80,29.76,29.71,10,6,1,8,1,,0.00,4,,160
2013-9-3,78,71,62,68,61,54,100,72,44,29.92,29.81,29.72,10,9,2,10,2,,0.00,1,,306
2013-9-4,78,68,57,59,56,54,94,70,44,30.05,30.00,29.92,10,10,7,9,4,,0.00,0,,280
2013-9-5,77,64,51,61,55,43,100,72,35,30.16,30.03,29.98,10,10,10,8,2,,0.00,1,,310
2013-9-6,69,58,46,50,44,37,100,64,31,30.26,30.20,30.16,10,10,10,7,2,,0.00,0,,13
2013-9-7,77,60,42,59,50,43,100,72,39,30.15,30.05,29.92,10,10,7,7,1,,0.00,0,,258
2013-9-8,80,70,59,64,58,45,94,67,47,30.09,29.92,29.87,10,10,7,10,3,16,0.00,2,,321
2013-9-9,73,58,44,61,53,45,100,72,53,30.23,30.17,30.10,10,10,7,10,3,,0.00,3,,155
2013-9-10,86,77,68,72,68,61,94,78,62,30.19,30.13,30.08,10,10,7,9,5,,0.00,4,,207
2013-9-11,91,80,68,75,71,68,100,74,52,30.14,30.08,30.01,10,8,1,12,3,18,0.00,1,,210
2013-9-12,86,77,68,72,70,66,100,82,58,30.00,29.86,29.73,10,8,2,13,4,24,0.00,2,,216
2013-9-13,75,65,55,68,58,48,100,76,49,29.90,29.75,29.67,10,8,2,13,3,20,0.00,2,,313
2013-9-14,62,53,44,48,46,45,100,74,55,30.16,30.03,29.91,10,10,10,9,4,16,0.00,3,,315
2013-9-15,71,56,41,55,48,41,100,76,43,30.24,30.16,30.10,10,9,2,8,1,,0.00,0,,240
2013-9-16,69,62,55,59,54,48,100,80,56,30.25,30.11,30.05,10,9,3,8,1,,0.00,4,,327
2013-9-17,62,52,42,48,41,37,100,70,39,30.43,30.36,30.26,10,10,10,10,3,20,0.01,0,,30
2013-9-18,69,53,37,50,43,37,100,75,37,30.36,30.29,30.20,10,8,1,7,1,,0.00,0,,165
2013-9-19,73,57,41,54,48,41,100,78,44,30.21,30.15,30.08,10,8,0,7,1,,0.00,0,,249
2013-9-20,78,62,46,59,53,45,100,76,44,30.10,30.05,29.98,10,7,0,8,1,,0.00,1,,193
2013-9-21,77,62,46,64,57,46,100,79,44,30.01,29.84,29.69,10,8,1,14,3,20,0.00,3,,182
2013-9-22,68,59,50,61,50,43,100,73,45,29.94,29.80,29.69,10,9,3,12,3,18,0.00,3,,317
2013-9-23,64,53,42,46,42,41,100,68,45,30.07,30.01,29.94,10,10,10,10,3,20,0.00,2,,332
2013-9-24,69,54,39,50,45,37,100,74,40,30.09,30.00,29.92,10,10,10,9,2,,0.01,0,,290
2013-9-25,69,55,41,54,45,41,100,78,35,29.97,29.94,29.88,10,10,10,6,1,,0.01,0,,334
2013-9-26,71,58,44,55,50,43,100,81,50,30.10,30.01,29.94,10,9,2,6,0,,0.02,2,,79
2013-9-27,69,60,50,55,52,48,100,79,49,30.26,30.19,30.10,10,9,2,7,1,,0.00,5,,69
2013-9-28,71,58,46,54,50,45,100,76,40,30.32,30.27,30.24,10,10,2,9,2,,0.00,3,,73
2013-9-29,71,58,44,55,49,43,100,82,46,30.23,30.15,30.08,10,8,0,8,1,,0.00,2,,84
2013-9-30,71,56,42,54,48,43,100,80,43,30.10,30.04,29.99,10,7,0,6,1,,0.00,1,,279